This demonstration page uses our WeatherBlox Daily Observations layout. Learn more.

Left ArrowRight Arrow

40.97296, -117.73568

Hourly Observations for August 26, 2020

Temp ( °F °C ) Dew Point ( °F °C ) Humidity (%) Winds ( mph kmh ) Pressure ( in mb ) Visibility ( mi km ) Precip ( " mm )
12:56 am 00:56 Clear 66 18.9 42 5.6 42 42 WNW 6 9 29.81 1010 9 14 0.00 0.00
1:56 am 01:56 Clear 64 17.8 43 6.1 46 46 NW 7 11 29.80 1009 8 13 0.00 0.00
2:56 am 02:56 Clear 63 17.2 44 6.7 50 50 Calm 29.81 1009 9 14 0.00 0.00
3:56 am 03:56 Clear 58 14.4 42 5.6 56 56 Calm 29.82 1010 9 14 0.00 0.00
4:56 am 04:56 Clear 59 15 44 6.7 58 58 NNW 5 7 29.81 1009 9 14 0.00 0.00
5:56 am 05:56 Clear 54 12.2 43 6.1 67 67 N 5 7 29.83 1010 9 14 0.00 0.00
6:56 am 06:56 Sunny 59 15 43 6.1 56 56 NNW 5 7 29.83 1010 7 11 0.00 0.00
7:56 am 07:56 Sunny 64 17.8 46 7.8 52 52 Calm 29.83 1010 8 13 0.00 0.00
8:56 am 08:56 Sunny 75 23.9 43 6.1 32 32 NW 6 9 29.82 1010 8 13 0.00 0.00
9:56 am 09:56 Sunny 81 27.2 39 3.9 22 22 NNW 8 13 29.81 1009 8 13 0.00 0.00
10:56 am 10:56 Sunny 86 30 39 3.9 19 19 N 9 15 29.78 1009 9 14 0.00 0.00
11:56 am 11:56 Sunny 88 31.1 39 3.9 18 18 N 6 9 29.78 1008 8 13 0.00 0.00
12:56 pm 12:56 Sunny 90 32.2 39 3.9 17 17 VRB 7 11 29.75 1008 8 13 0.00 0.00
1:56 pm 13:56 Mostly Sunny 92 33.3 39 3.9 16 16 W 9 15 29.72 1007 9 14 0.00 0.00
2:56 pm 14:56 Mostly Sunny 94 34.4 39 3.9 15 15 WNW 13 20 29.70 1006 8 13 0.00 0.00
3:56 pm 15:56 Partly Cloudy 90 32.2 38 3.3 16 16 Calm 29.70 1006 8 13 0.00 0.00
4:56 pm 16:56 Partly Cloudy 91 32.8 37 2.8 15 15 SW 5 7 29.67 1005 9 14 0.00 0.00
5:56 pm 17:56 Mostly Cloudy 92 33.3 35 1.7 13 13 W 14 22 29.67 1005 9 14 0.00 0.00
6:56 pm 18:56 Mostly Cloudy 87 30.6 34 1.1 15 15 WNW 6 9 29.66 1005 9 14 0.00 0.00
7:56 pm 19:56 Mostly Clear 80 26.7 34 1.1 19 19 NW 6 9 29.67 1005 10 16 0.00 0.00
8:56 pm 20:56 Clear 72 22.2 36 2.2 27 27 ESE 3 6 29.69 1005 10 16 0.00 0.00
9:56 pm 21:56 Clear 73 22.8 39 3.9 29 29 ESE 5 7 29.69 1005 10 16 0.00 0.00
10:56 pm 22:56 Clear 74 23.3 38 3.3 27 27 NE 6 9 29.69 1005 9 14 0.00 0.00
11:40 pm 23:40 Mostly Clear with Nearby Thunderstorms 75 23.9 37 2.8 25 25 Calm 29.61 1003 10 16 0.00 0.00
11:56 pm 23:56 Partly Cloudy with Nearby Thunderstorms 75 23.9 39 3.9 27 27 S 7 11 29.73 1007 10 16 0.00 0.00

Powered by AerisWeather